TimePDT,TemperatureF,Dew PointF,Humidity,Sea Level PressureIn,VisibilityMPH,Wind Direction,Wind SpeedMPH,Gust SpeedMPH,PrecipitationIn,Events,Conditions,WindDirDegrees,DateUTC
12:56 AM,39.9,39.0,97,29.86,0.2,South,20.7,33.4,0.00,Fog-Rain,Light Rain,190,2013-04-07 07:56:00
1:56 AM,39.9,39.9,100,29.84,0.2,SSW,19.6,29.9,0.01,Fog-Rain,Light Rain,200,2013-04-07 08:56:00
2:56 AM,41.0,39.9,96,29.84,0.2,SSW,16.1,27.6,0.00,Fog-Rain,Light Rain,200,2013-04-07 09:56:00
3:11 AM,41.0,39.2,93,29.84,0.5,SW,18.4,29.9,0.00,Fog-Rain,Light Rain,220,2013-04-07 10:11:00
3:39 AM,39.2,39.2,100,29.85,0.2,SW,10.4,26.5,0.00,Fog-Rain,Light Rain,220,2013-04-07 10:39:00
3:47 AM,39.2,39.2,100,29.85,0.5,SSW,15.0,28.8,0.00,Fog-Rain,Light Rain,210,2013-04-07 10:47:00
3:56 AM,39.9,39.0,97,29.86,0.8,SW,9.2,28.8,0.00,,Mist,220,2013-04-07 10:56:00
4:02 AM,39.2,37.4,93,29.85,1.5,SW,11.5,29.9,N/A,,Overcast,220,2013-04-07 11:02:00
4:04 AM,39.2,37.4,93,29.85,3.0,SW,10.4,29.9,N/A,,Overcast,220,2013-04-07 11:04:00
4:12 AM,39.2,37.4,93,29.86,7.0,SSW,11.5,24.2,N/A,,Overcast,210,2013-04-07 11:12:00
4:25 AM,37.4,37.4,100,29.86,5.0,SW,9.2,21.9,0.00,Rain,Light Rain,220,2013-04-07 11:25:00
4:48 AM,37.4,37.4,100,29.87,10.0,SW,10.4,26.5,0.00,,Mostly Cloudy,220,2013-04-07 11:48:00
4:56 AM,37.0,36.0,96,29.90,10.0,SW,13.8,27.6,0.00,,Mostly Cloudy,220,2013-04-07 11:56:00
5:11 AM,37.4,35.6,93,29.87,10.0,SW,9.2,28.8,N/A,,Overcast,220,2013-04-07 12:11:00
5:56 AM,36.0,35.1,97,29.91,10.0,SW,12.7,23.0,N/A,,Overcast,230,2013-04-07 12:56:00
6:09 AM,35.6,35.6,100,29.88,10.0,WSW,8.1,18.4,0.00,Rain,Light Rain,240,2013-04-07 13:09:00
6:18 AM,35.6,35.6,100,29.88,5.0,Variable,5.8,-,0.00,Rain,Light Rain,0,2013-04-07 13:18:00
6:30 AM,35.6,35.6,100,29.88,1.8,SW,8.1,-,0.00,,Overcast,220,2013-04-07 13:30:00
6:41 AM,35.6,35.6,100,29.89,3.0,WSW,8.1,19.6,0.00,,Overcast,240,2013-04-07 13:41:00
6:56 AM,35.1,34.0,96,29.93,10.0,Variable,6.9,-,0.00,,Overcast,0,2013-04-07 13:56:00
7:04 AM,35.6,33.8,93,29.89,9.0,WSW,8.1,-,N/A,,Overcast,240,2013-04-07 14:04:00
7:56 AM,36.0,34.0,93,29.94,10.0,Variable,4.6,19.6,N/A,,Overcast,0,2013-04-07 14:56:00
8:10 AM,35.6,33.8,93,29.91,10.0,WSW,8.1,-,N/A,,Overcast,240,2013-04-07 15:10:00
8:21 AM,35.6,33.8,93,29.91,10.0,SW,8.1,-,N/A,,Overcast,230,2013-04-07 15:21:00
8:56 AM,36.0,34.0,93,29.95,10.0,Variable,6.9,-,N/A,,Overcast,0,2013-04-07 15:56:00
9:56 AM,35.1,32.0,89,29.96,10.0,SW,9.2,18.4,N/A,,Overcast,230,2013-04-07 16:56:00
10:56 AM,33.1,32.0,96,29.98,4.0,WSW,6.9,-,0.00,Snow,Light Snow,250,2013-04-07 17:56:00
11:12 AM,33.8,33.8,100,29.93,2.5,Variable,5.8,-,0.01,Snow,Light Snow,0,2013-04-07 18:12:00
11:14 AM,33.8,32.0,93,29.93,1.2,Variable,3.5,-,0.01,Snow,Light Snow,0,2013-04-07 18:14:00
11:17 AM,33.8,32.0,93,29.93,0.2,Variable,5.8,-,0.01,Fog-Snow,Light Snow,0,2013-04-07 18:17:00
11:34 AM,33.8,32.0,93,29.92,1.0,WSW,10.4,16.1,0.03,Snow,Light Snow,240,2013-04-07 18:34:00
11:46 AM,33.8,32.0,93,29.92,3.0,SW,9.2,20.7,0.03,Snow,Light Snow,230,2013-04-07 18:46:00
11:54 AM,33.8,33.8,100,29.92,8.0,SW,8.1,17.3,0.03,,Overcast,220,2013-04-07 18:54:00
11:56 AM,35.1,33.1,92,29.96,5.0,SW,11.5,18.4,0.03,Snow,Light Snow,220,2013-04-07 18:56:00
12:07 PM,33.8,33.8,100,29.92,6.0,SW,9.2,-,0.01,Snow,Light Snow,230,2013-04-07 19:07:00
12:17 PM,33.8,33.8,100,29.91,6.0,SW,9.2,17.3,0.01,Snow,Light Snow,220,2013-04-07 19:17:00
12:56 PM,35.1,32.0,89,29.94,9.0,WSW,11.5,26.5,0.01,,Overcast,240,2013-04-07 19:56:00
1:26 PM,35.6,33.8,93,29.89,6.0,SSW,9.2,-,0.00,Rain,Light Rain,210,2013-04-07 20:26:00
1:56 PM,36.0,33.1,89,29.93,10.0,Variable,3.5,20.7,0.00,,Overcast,0,2013-04-07 20:56:00
2:04 PM,35.6,32.0,87,29.89,10.0,WSW,8.1,16.1,N/A,,Overcast,240,2013-04-07 21:04:00
2:14 PM,35.6,32.0,87,29.89,10.0,Variable,6.9,-,N/A,,Overcast,0,2013-04-07 21:14:00
2:35 PM,37.4,33.8,87,29.89,10.0,Variable,4.6,-,N/A,,Overcast,0,2013-04-07 21:35:00
2:48 PM,35.6,33.8,93,29.88,9.0,Variable,6.9,-,0.00,Rain,Light Rain,0,2013-04-07 21:48:00
2:56 PM,36.0,33.1,89,29.90,10.0,Variable,6.9,-,0.00,Rain,Light Rain,0,2013-04-07 21:56:00
3:03 PM,35.6,32.0,87,29.87,5.0,SW,8.1,16.1,0.01,Rain,Rain,220,2013-04-07 22:03:00
3:35 PM,33.8,33.8,100,29.87,2.5,Variable,3.5,-,0.02,Snow,Light Snow,0,2013-04-07 22:35:00
3:39 PM,33.8,33.8,100,29.87,0.8,Variable,4.6,-,0.02,Snow,Light Snow,0,2013-04-07 22:39:00
3:47 PM,33.8,32.0,93,29.86,0.2,West,10.4,16.1,0.04,Fog-Snow,Light Snow,260,2013-04-07 22:47:00
3:52 PM,33.8,32.0,93,29.86,0.5,WSW,8.1,16.1,0.04,Fog-Snow,Light Snow,250,2013-04-07 22:52:00
3:56 PM,33.1,30.9,92,29.90,0.5,Variable,6.9,-,0.04,Fog-Snow,Light Snow,0,2013-04-07 22:56:00
4:13 PM,33.8,32.0,93,29.86,0.2,Variable,4.6,-,0.01,Fog-Snow,Light Snow,0,2013-04-07 23:13:00
4:56 PM,32.0,30.9,96,29.89,0.2,Variable,3.5,-,0.04,Fog-Snow,Light Snow,0,2013-04-07 23:56:00
5:56 PM,30.9,30.9,100,29.87,0.2,Calm,Calm,-,0.04,Fog-Snow,Snow,0,2013-04-08 00:56:00
6:56 PM,30.9,30.0,96,29.87,0.2,NNW,3.5,-,0.05,Fog-Snow,Snow,340,2013-04-08 01:56:00
7:54 PM,30.2,30.2,100,29.80,0.5,Variable,3.5,-,0.09,Fog-Snow,Snow,0,2013-04-08 02:54:00
7:56 PM,30.9,30.0,96,29.85,0.5,Variable,4.6,-,0.09,Fog-Snow,Snow,0,2013-04-08 02:56:00
8:11 PM,30.2,30.2,100,29.80,0.2,Variable,5.8,-,0.03,Fog-Snow,Snow,0,2013-04-08 03:11:00
8:18 PM,30.2,28.4,93,29.80,0.2,Variable,4.6,-,0.04,Fog-Snow,Snow,0,2013-04-08 03:18:00
8:26 PM,30.2,28.4,93,29.80,0.5,Calm,Calm,-,0.05,Fog-Snow,Snow,0,2013-04-08 03:26:00
8:54 PM,30.2,28.4,93,29.82,0.2,Variable,6.9,-,0.08,Fog-Snow,Snow,0,2013-04-08 03:54:00
8:56 PM,30.0,28.9,96,29.88,0.2,Variable,5.8,-,0.08,Fog-Snow,Snow,0,2013-04-08 03:56:00
9:02 PM,30.2,28.4,93,29.82,0.5,Variable,4.6,-,0.00,Fog-Snow,Snow,0,2013-04-08 04:02:00
9:56 PM,28.9,28.0,96,29.92,0.5,Variable,4.6,-,0.05,Fog-Snow,Light Snow,0,2013-04-08 04:56:00
10:56 PM,28.9,28.0,96,29.94,0.2,Variable,3.5,-,0.02,Fog-Snow,Light Snow,0,2013-04-08 05:56:00
11:28 PM,28.4,28.4,100,29.88,0.5,Variable,5.8,-,0.00,Fog-Snow,Light Snow,0,2013-04-08 06:28:00
11:56 PM,28.9,28.0,96,29.96,0.5,Variable,3.5,-,0.00,Fog-Snow,Light Snow,0,2013-04-08 06:56:00